Weather History for KECG - December, 2012

Change the Weather History Date:

Saturday, December 29, 2012

  Actual Average Record
Temperature  
Mean Temperature 48 °F 42 °F  
Max Temperature 54 °F 51 °F 77 °F (1942)
Min Temperature 42 °F 32 °F 15 °F (1952)
Degree Days  
Heating Degree Days 17 23  
Month to date heating degree days 334 592  
Since 1 July heating degree days 843 1107  
Cooling Degree Days 0 0  
Month to date cooling degree days 3 0  
Year to date cooling degree days 2236 1588  
Moisture  
Dew Point 43 °F    
Average Humidity 79    
Maximum Humidity 93    
Minimum Humidity 65    
Precipitation  
Precipitation 0.83 in 0.07 in 1.97 in (1958)
Month to date precipitation 3.85 2.43  
Year to date precipitation 47.77 46.45  
Snow  
Snow 0.00 in - 5.50 in (1935)
Month to date snowfall 0.0  
Since 1 July snowfall 0.0  
Snow Depth 0.00 in    
Sea Level Pressure  
Sea Level Pressure 29.71 in    
Wind  
Wind Speed 10 mph (NNW)    
Max Wind Speed 24 mph    
Max Gust Speed 32 mph    
Visibility 7 miles    
Events Rain    
T = Trace of Precipitation, MM = Missing Value Source: NWS Daily Summary

Daily Weather History Graph

Daily Weather History Graph

Search for Another Location

Airport or City:

Trip Planner

Search our weather history database for the weather conditions in past years. The results will help you decide how hot, cold, wet, or windy it might be!

Date:

Astronomy

Dec. 29, 2012 Rise Set
Actual Time 7:15 AM EST 4:58 PM EST
Civil Twilight 6:46 AM EST 5:27 PM EST
Nautical Twilight 6:14 AM EST 5:59 PM EST
Astronomical Twilight 5:43 AM EST 6:30 PM EST
Moon 6:26 PM EST (12/29) 7:50 AM EST (12/29)
Length of Visible Light 10h 40m
Length of Day
9h 43m
Full, 98% of the Moon is Illuminated
Dec 29
Full
Jan 4
Last Quarter
Jan 11
New
Jan 18
First Quarter
Jan 26
Full

Hourly Weather History & Observations

Time (EST) Temp. Windchill Dew Point Humidity Pressure Visibility Wind Dir Wind Speed Gust Speed Precip Events Conditions
12:54 AM 44.1 °F 42.5 °F 37.0 °F 76% 30.04 in 10.0 mi ESE 3.5 mph - N/A   Overcast
1:54 AM 45.0 °F 42.6 °F 37.0 °F 74% 30.00 in 10.0 mi East 4.6 mph - N/A   Overcast
2:18 AM 46.4 °F 42.9 °F 37.4 °F 71% 29.98 in 10.0 mi East 6.9 mph - N/A   Overcast
2:54 AM 46.0 °F 43.1 °F 36.0 °F 68% 29.99 in 10.0 mi ENE 5.8 mph - N/A   Overcast
3:02 AM 46.4 °F 43.5 °F 35.6 °F 66% 29.98 in 10.0 mi NE 5.8 mph - N/A   Overcast
4:10 AM 46.4 °F 44.3 °F 35.6 °F 66% 29.94 in 10.0 mi NE 4.6 mph - N/A   Overcast
4:54 AM 46.0 °F 42.5 °F 37.9 °F 73% 29.91 in 10.0 mi NE 6.9 mph - 0.00 in Rain Light Rain
5:54 AM 46.0 °F 43.1 °F 39.9 °F 79% 29.88 in 6.0 mi North 5.8 mph - 0.02 in Rain Light Rain
6:54 AM 46.9 °F - 42.1 °F 83% 29.86 in 5.0 mi ENE 6.9 mph - 0.12 in Rain Rain
7:33 AM 48.2 °F - 42.8 °F 82% 29.79 in 6.0 mi ENE 11.5 mph - 0.11 in Rain Light Rain
7:54 AM 48.0 °F - 44.1 °F 86% 29.77 in 6.0 mi East 9.2 mph - 0.15 in Rain Rain
8:47 AM 48.2 °F - 44.6 °F 87% 29.74 in 2.5 mi East 8.1 mph - 0.18 in Rain Rain
8:54 AM 48.9 °F - 46.0 °F 90% 29.72 in 3.0 mi East 8.1 mph - 0.20 in Rain Rain
9:18 AM 50.0 °F - 46.4 °F 87% 29.68 in 2.5 mi East 9.2 mph - 0.11 in Rain Rain
9:25 AM 50.0 °F - 46.4 °F 87% 29.69 in 3.0 mi East 9.2 mph - 0.12 in Rain Rain
9:50 AM 51.8 °F - 46.4 °F 82% 29.65 in 6.0 mi East 9.2 mph - 0.15 in Rain Light Rain
9:54 AM 51.1 °F - 46.9 °F 86% 29.65 in 5.0 mi East 8.1 mph - 0.16 in Rain Light Rain
10:17 AM 51.8 °F - 48.2 °F 88% 29.64 in 1.8 mi NE 6.9 mph - 0.05 in Rain Heavy Rain
10:54 AM 54.0 °F - 50.0 °F 86% 29.59 in 2.0 mi ENE 3.5 mph - 0.08 in Rain Light Rain
11:06 AM 53.6 °F - 50.0 °F 88% 29.59 in 1.5 mi NW 4.6 mph - 0.01 in Rain Light Rain
11:17 AM 53.6 °F - 50.0 °F 88% 29.59 in 1.2 mi WNW 8.1 mph - 0.03 in Rain Light Rain
11:43 AM 53.6 °F - 51.8 °F 94% 29.58 in 3.0 mi WNW 10.4 mph - 0.08 in Rain Light Rain
11:52 AM 53.6 °F - 51.8 °F 94% 29.57 in 2.5 mi West 9.2 mph - 0.08 in Rain Light Rain
11:54 AM 54.0 °F - 51.1 °F 90% 29.58 in 2.5 mi WNW 12.7 mph - 0.08 in Rain Light Rain
12:06 PM 51.8 °F - 48.2 °F 88% 29.58 in 1.2 mi WNW 18.4 mph 24.2 mph 0.02 in Rain Light Rain
12:14 PM 51.8 °F - 46.4 °F 82% 29.58 in 2.5 mi WNW 24.2 mph 32.2 mph 0.02 in Rain Light Rain
12:27 PM 48.2 °F - 44.6 °F 87% 29.58 in 5.0 mi WNW 16.1 mph 25.3 mph 0.02 in Rain Light Rain
12:54 PM 48.9 °F - 45.0 °F 86% 29.57 in 4.0 mi WNW 15.0 mph - 0.02 in Rain Light Rain
1:50 PM 48.2 °F - 44.6 °F 87% 29.57 in 10.0 mi WNW 11.5 mph - 0.00 in   Overcast
1:54 PM 48.9 °F - 44.1 °F 83% 29.57 in 10.0 mi WNW 15.0 mph - 0.00 in   Overcast
2:23 PM 50.0 °F - 44.6 °F 82% 29.57 in 10.0 mi West 15.0 mph 20.7 mph N/A   Overcast
2:54 PM 50.0 °F - 44.1 °F 80% 29.58 in 10.0 mi WNW 18.4 mph - N/A   Mostly Cloudy
3:03 PM 50.0 °F - 44.6 °F 82% 29.58 in 10.0 mi West 16.1 mph - N/A   Mostly Cloudy
3:20 PM 50.0 °F - 42.8 °F 76% 29.58 in 10.0 mi WNW 19.6 mph 28.8 mph N/A   Scattered Clouds
3:54 PM 50.0 °F - 42.1 °F 74% 29.60 in 10.0 mi West 17.3 mph 25.3 mph N/A   Partly Cloudy
4:54 PM 48.0 °F - 41.0 °F 77% 29.64 in 10.0 mi West 11.5 mph - N/A   Clear
5:54 PM 48.0 °F - 39.9 °F 74% 29.66 in 10.0 mi West 10.4 mph - N/A   Clear
6:54 PM 48.0 °F - 39.0 °F 71% 29.69 in 10.0 mi West 11.5 mph - N/A   Clear
7:54 PM 46.0 °F 41.9 °F 37.9 °F 73% 29.71 in 10.0 mi WSW 8.1 mph - N/A   Clear
8:54 PM 46.9 °F - 37.0 °F 68% 29.75 in 10.0 mi West 11.5 mph 20.7 mph N/A   Clear
9:54 PM 44.1 °F 37.7 °F 36.0 °F 73% 29.78 in 10.0 mi West 12.7 mph - N/A   Clear
10:54 PM 43.0 °F 35.7 °F 33.1 °F 68% 29.81 in 10.0 mi West 15.0 mph - N/A   Clear
11:54 PM 42.1 °F 35.7 °F 32.0 °F 67% 29.83 in 10.0 mi WNW 11.5 mph - N/A   Clear